Weather History for KMYL - October, 2014

Change the Weather History Date:

Monday, October 13, 2014

  Actual Average Record
Temperature  
Mean Temperature 47 °F 41 °F  
Max Temperature 62 °F 57 °F 76 °F (1991)
Min Temperature 31 °F 25 °F 16 °F (1985)
Degree Days  
Heating Degree Days 18 24  
Month to date heating degree days 196 290  
Since 1 July heating degree days 564 1055  
Cooling Degree Days 0 0  
Month to date cooling degree days 0 0  
Year to date cooling degree days 185 25  
Moisture  
Dew Point 31 °F    
Average Humidity 61    
Maximum Humidity 92    
Minimum Humidity 30    
Precipitation  
Precipitation 0.00 in 0.04 in 0.70 in (1962)
Month to date precipitation 0.03 0.44  
Year to date precipitation 17.44 14.36  
Sea Level Pressure  
Sea Level Pressure 30.15 in    
Wind  
Wind Speed 4 mph (ESE)    
Max Wind Speed 15 mph    
Max Gust Speed 18 mph    
Visibility 10 miles    
Events      
T = Trace of Precipitation, MM = Missing Value Source: NWS Daily Summary

Daily Weather History Graph

Daily Weather History Graph

Search for Another Location

Airport or City:

Trip Planner

Search our weather history database for the weather conditions in past years. The results will help you decide how hot, cold, wet, or windy it might be!

Date:

Astronomy

Oct. 13, 2014 Rise Set
Actual Time 7:57 AM MDT 7:02 PM MDT
Civil Twilight 7:28 AM MDT 7:32 PM MDT
Nautical Twilight 6:54 AM MDT 8:06 PM MDT
Astronomical Twilight 6:20 AM MDT 8:40 PM MDT
Moon 11:09 PM MDT (10/13) 1:23 PM MDT (10/13)
Length of Visible Light 12h 04m
Length of Day
11h 05m
Waning Gibbous, 70% of the Moon is Illuminated
Oct 13
Waning Gibbous
Oct 15
Last Quarter
Oct 23
New
Oct 30
First Quarter
Nov 6
Full

Hourly Weather History & Observations

Time (MDT) Temp. Windchill Dew Point Humidity Pressure Visibility Wind Dir Wind Speed Gust Speed Precip Events Conditions
12:51 AM 33.1 °F - 28.9 °F 85% 30.23 in 10.0 mi Calm Calm - N/A   Clear
1:51 AM 34.0 °F - 30.0 °F 85% 30.23 in 10.0 mi Calm Calm - N/A   Mostly Cloudy
2:51 AM 34.0 °F 31.0 °F 28.9 °F 82% 30.22 in 10.0 mi NE 3.5 mph - N/A   Scattered Clouds
3:51 AM 34.0 °F - 30.0 °F 85% 30.21 in 10.0 mi Calm Calm - N/A   Partly Cloudy
4:51 AM 34.0 °F - 28.9 °F 82% 30.21 in 10.0 mi Calm Calm - N/A   Clear
5:51 AM 33.1 °F - 30.9 °F 92% 30.21 in 10.0 mi Calm Calm - N/A   Clear
6:51 AM 32.0 °F - 28.0 °F 85% 30.22 in 10.0 mi Calm Calm - N/A   Clear
7:51 AM 30.9 °F 27.5 °F 28.0 °F 89% 30.24 in 10.0 mi NE 3.5 mph - N/A   Clear
8:51 AM 33.1 °F - 28.9 °F 85% 30.27 in 10.0 mi Calm Calm - N/A   Clear
9:51 AM 37.9 °F - 32.0 °F 79% 30.25 in 10.0 mi Calm Calm - N/A   Clear
10:51 AM 44.1 °F - 34.0 °F 68% 30.24 in 10.0 mi Calm Calm - N/A   Clear
11:51 AM 46.9 °F - 33.1 °F 59% 30.23 in 10.0 mi Calm Calm - N/A   Clear
12:51 PM 54.0 °F - 30.9 °F 41% 30.19 in 10.0 mi SSE 6.9 mph - N/A   Clear
1:51 PM 57.0 °F - 30.9 °F 37% 30.15 in 10.0 mi SSE 10.4 mph - N/A   Clear
2:51 PM 60.1 °F - 30.0 °F 32% 30.12 in 10.0 mi SSE 8.1 mph - N/A   Clear
3:51 PM 61.0 °F - 30.0 °F 31% 30.09 in 10.0 mi SSE 10.4 mph - N/A   Clear
4:51 PM 62.1 °F - 30.9 °F 31% 30.07 in 10.0 mi South 13.8 mph - N/A   Clear
5:51 PM 60.1 °F - 30.0 °F 32% 30.06 in 10.0 mi South 9.2 mph - N/A   Clear
6:51 PM 55.9 °F - 32.0 °F 40% 30.06 in 10.0 mi SSE 4.6 mph - N/A   Clear
7:51 PM 51.1 °F - 30.0 °F 44% 30.07 in 10.0 mi NE 3.5 mph - N/A   Clear
8:51 PM 48.9 °F - 30.9 °F 50% 30.06 in 10.0 mi Calm Calm - N/A   Clear
9:51 PM 45.0 °F 43.5 °F 32.0 °F 60% 30.04 in 10.0 mi NNE 3.5 mph - N/A   Clear
10:51 PM 44.1 °F - 32.0 °F 63% 30.02 in 10.0 mi Calm Calm - N/A   Clear
11:51 PM 42.1 °F 40.2 °F 33.1 °F 70% 30.00 in 10.0 mi NNE 3.5 mph - N/A   Clear